When you browse on this site, cookies collect data to enhance your experience and personalize the content and advertising you see.
Visit our Privacy Policy to learn more. By continuing to use the site, you agree to this use of cookies and data.
  • In Czech Republic
  • List of Countries
  • For 7 days
  • Water Temperature
  • Satellite Maps
  • Weather Map
  • Weather Widgets
  • user-avatar
    Login

    Hourly Weather Merrimack

    Today, 21 February, Thursday

    Time Temperature Precipitation Wind Pressure Humidity
    00:00 -5°C° 0.6 mm 2 mps 761 mmHg 88%
    01:00 -6°C° 0 mm 2 mps 760 mmHg 94%
    02:00 -3°C° 1.3 mm 1 mps 758 mmHg 94%
    03:00 -3°C° 1.3 mm 1 mps 757 mmHg 94%
    04:00 -3°C° 1.3 mm 1 mps 756 mmHg 95%
    05:00 -2°C° 0.2 mm 1 mps 755 mmHg 95%
    06:00 -1°C° 0.2 mm 1 mps 754 mmHg 95%
    07:00 -2°C° 0.2 mm 0 mps 753 mmHg 95%
    08:00 +1°C° 0 mm 1 mps 753 mmHg 92%
    09:00 +3°C° 0 mm 1 mps 752 mmHg 90%
    10:00 +3°C° 0 mm 2 mps 752 mmHg 88%
    11:00 +4°C° 0 mm 3 mps 752 mmHg 83%
    12:00 +5°C° 0 mm 4 mps 752 mmHg 79%
    13:00 +6°C° 0 mm 5 mps 752 mmHg 74%
    14:00 +5°C° 0 mm 5 mps 752 mmHg 73%
    15:00 +3°C° 0 mm 5 mps 753 mmHg 73%
    16:00 +3°C° 0 mm 5 mps 753 mmHg 72%
    17:00 +1°C° 0 mm 4 mps 754 mmHg 75%
    18:00 0°C° 0 mm 4 mps 754 mmHg 77%
    19:00 -2°C° 0 mm 4 mps 755 mmHg 80%
    20:00 -2°C° 0 mm 4 mps 756 mmHg 79%
    21:00 -2°C° 0 mm 4 mps 756 mmHg 78%
    22:00 -2°C° 0 mm 4 mps 757 mmHg 76%
    23:00 -2°C° 0 mm 4 mps 757 mmHg 76%

    Tomorrow, 22 February, Friday

    Time Temperature Precipitation Wind Pressure Humidity
    00:00 -2°C° 0 mm 4 mps 758 mmHg 76%
    01:00 -3°C° 0 mm 4 mps 758 mmHg 76%
    02:00 -2°C° 0 mm 3 mps 759 mmHg 78%
    03:00 -2°C° 0 mm 3 mps 759 mmHg 80%
    04:00 -4°C° 0 mm 3 mps 760 mmHg 81%
    05:00 -4°C° 0 mm 3 mps 761 mmHg 82%
    06:00 -4°C° 0 mm 3 mps 762 mmHg 83%
    07:00 -4°C° 0 mm 3 mps 762 mmHg 84%
    08:00 -2°C° 0 mm 3 mps 763 mmHg 78%
    09:00 -2°C° 0 mm 4 mps 764 mmHg 72%
    10:00 -1°C° 0 mm 5 mps 765 mmHg 66%
    11:00 0°C° 0 mm 4 mps 765 mmHg 65%
    12:00 0°C° 0 mm 4 mps 765 mmHg 63%
    13:00 +1°C° 0 mm 4 mps 765 mmHg 62%
    14:00 +1°C° 0 mm 4 mps 765 mmHg 64%
    15:00 +1°C° 0 mm 4 mps 765 mmHg 66%
    16:00 +2°C° 0 mm 3 mps 765 mmHg 68%
    17:00 0°C° 0 mm 3 mps 766 mmHg 73%
    18:00 -1°C° 0 mm 2 mps 766 mmHg 79%
    19:00 -3°C° 0 mm 2 mps 767 mmHg 85%
    20:00 -3°C° 0 mm 2 mps 767 mmHg 84%
    21:00 -3°C° 0 mm 2 mps 768 mmHg 84%
    22:00 -3°C° 0 mm 2 mps 768 mmHg 83%
    23:00 -4°C° 0 mm 2 mps 768 mmHg 82%

    Day after tomorrow, 23 February, Saturday

    Time Temperature Precipitation Wind Pressure Humidity
    00:00 -4°C° 0 mm 2 mps 769 mmHg 80%
    01:00 -5°C° 0 mm 3 mps 769 mmHg 79%
    02:00 -5°C° 0 mm 2 mps 769 mmHg 79%
    03:00 -5°C° 0 mm 2 mps 769 mmHg 79%
    04:00 -5°C° 0 mm 2 mps 769 mmHg 80%
    05:00 -4°C° 0 mm 1 mps 769 mmHg 80%
    06:00 -4°C° 0 mm 1 mps 769 mmHg 81%
    07:00 -4°C° 0 mm 1 mps 769 mmHg 81%
    08:00 -2°C° 0 mm 1 mps 769 mmHg 75%
    09:00 0°C° 0 mm 1 mps 769 mmHg 69%
    10:00 +2°C° 0 mm 1 mps 769 mmHg 62%
    11:00 +3°C° 0 mm 1 mps 768 mmHg 60%
    12:00 +4°C° 0 mm 1 mps 768 mmHg 58%
    13:00 +5°C° 0 mm 1 mps 767 mmHg 56%
    14:00 +5°C° 0 mm 1 mps 767 mmHg 60%
    15:00 +5°C° 0 mm 1 mps 766 mmHg 64%
    16:00 +4°C° 0 mm 0 mps 766 mmHg 68%
    17:00 +3°C° 0 mm 1 mps 766 mmHg 73%
    18:00 +2°C° 0 mm 1 mps 766 mmHg 78%
    19:00 +1°C° 0 mm 1 mps 765 mmHg 82%
    20:00 +1°C° 0 mm 1 mps 765 mmHg 83%
    21:00 +1°C° 0 mm 1 mps 765 mmHg 84%
    22:00 +1°C° 0 mm 1 mps 764 mmHg 85%
    23:00 +1°C° 0 mm 1 mps 764 mmHg 85%

    24 February, Sunday

    Time Temperature Precipitation Wind Pressure Humidity
    00:00 +1°C° 0 mm 1 mps 763 mmHg 85%
    01:00 +1°C° 0 mm 1 mps 762 mmHg 85%
    02:00 +1°C° 0 mm 1 mps 761 mmHg 85%
    03:00 +1°C° 0 mm 1 mps 760 mmHg 85%
    04:00 -1°C° 0 mm 2 mps 759 mmHg 85%
    05:00 -1°C° 0.5 mm 2 mps 758 mmHg 88%
    06:00 -1°C° 0.5 mm 2 mps 757 mmHg 91%
    07:00 +1°C° 0.5 mm 2 mps 756 mmHg 94%
    08:00 0°C° 0.8 mm 3 mps 755 mmHg 95%
    09:00 +1°C° 0.8 mm 3 mps 753 mmHg 96%
    10:00 +1°C° 0.8 mm 4 mps 752 mmHg 97%
    11:00 +3°C° 1.3 mm 4 mps 750 mmHg 97%
    12:00 +3°C° 1.3 mm 4 mps 748 mmHg 97%
    13:00 +4°C° 1.3 mm 4 mps 746 mmHg 96%
    14:00 +4°C° 1.6 mm 3 mps 744 mmHg 97%
    15:00 +5°C° 1.6 mm 2 mps 742 mmHg 98%
    16:00 +6°C° 1.6 mm 1 mps 740 mmHg 98%
    17:00 +6°C° 0.5 mm 2 mps 740 mmHg 98%
    18:00 +6°C° 0.5 mm 2 mps 739 mmHg 97%
    19:00 +7°C° 0.5 mm 3 mps 738 mmHg 96%
    20:00 +5°C° 0 mm 4 mps 738 mmHg 90%
    21:00 +4°C° 0 mm 4 mps 738 mmHg 85%
    22:00 +2°C° 0 mm 5 mps 738 mmHg 79%
    23:00 +2°C° 0 mm 5 mps 738 mmHg 78%

    25 February, Monday

    Time Temperature Precipitation Wind Pressure Humidity
    00:00 +1°C° 0 mm 5 mps 738 mmHg 77%
    01:00 0°C° 0 mm 5 mps 738 mmHg 76%
    02:00 0°C° 0 mm 5 mps 739 mmHg 75%
    03:00 -1°C° 0 mm 5 mps 739 mmHg 73%
    04:00 -1°C° 0 mm 5 mps 739 mmHg 71%
    05:00 -2°C° 0 mm 6 mps 739 mmHg 68%
    06:00 -2°C° 0 mm 7 mps 740 mmHg 65%
    07:00 -4°C° 0 mm 8 mps 740 mmHg 61%
    08:00 -2°C° 0 mm 8 mps 741 mmHg 58%
    09:00 -3°C° 0 mm 9 mps 742 mmHg 55%
    10:00 -3°C° 0 mm 9 mps 743 mmHg 52%
    11:00 -3°C° 0 mm 9 mps 744 mmHg 50%
    12:00 -4°C° 0 mm 10 mps 744 mmHg 49%
    13:00 -4°C° 0 mm 10 mps 745 mmHg 47%
    14:00 -5°C° 0 mm 10 mps 746 mmHg 47%
    15:00 -7°C° 0 mm 10 mps 748 mmHg 47%
    16:00 -6°C° 0 mm 9 mps 749 mmHg 46%
    17:00 -8°C° 0 mm 9 mps 750 mmHg 47%
    18:00 -9°C° 0 mm 9 mps 752 mmHg 48%
    19:00 -10°C° 0 mm 8 mps 753 mmHg 49%
    20:00 -11°C° 0 mm 8 mps 755 mmHg 46%
    21:00 -12°C° 0 mm 8 mps 756 mmHg 44%
    22:00 -13°C° 0 mm 8 mps 757 mmHg 42%
    23:00 -15°C° 0 mm 8 mps 758 mmHg 41%

    26 February, Tuesday

    Time Temperature Precipitation Wind Pressure Humidity
    00:00 -16°C° 0 mm 8 mps 759 mmHg 40%
    01:00 -17°C° 0 mm 8 mps 760 mmHg 39%
    02:00 -17°C° 0 mm 8 mps 761 mmHg 39%
    03:00 -17°C° 0 mm 8 mps 761 mmHg 39%
    04:00 -18°C° 0 mm 7 mps 762 mmHg 39%
    05:00 -18°C° 0 mm 7 mps 763 mmHg 39%
    06:00 -18°C° 0 mm 7 mps 764 mmHg 39%
    07:00 -17°C° 0 mm 6 mps 765 mmHg 39%
    08:00 -16°C° 0 mm 6 mps 765 mmHg 36%
    09:00 -15°C° 0 mm 6 mps 766 mmHg 34%
    10:00 -14°C° 0 mm 6 mps 766 mmHg 32%
    11:00 -12°C° 0 mm 6 mps 766 mmHg 30%
    12:00 -11°C° 0 mm 5 mps 766 mmHg 29%
    13:00 -8°C° 0 mm 5 mps 765 mmHg 28%
    14:00 -8°C° 0 mm 5 mps 765 mmHg 29%
    15:00 -8°C° 0 mm 5 mps 765 mmHg 30%
    16:00 -8°C° 0 mm 4 mps 765 mmHg 31%
    17:00 -8°C° 0 mm 3 mps 766 mmHg 36%
    18:00 -9°C° 0 mm 3 mps 766 mmHg 41%
    19:00 -8°C° 0 mm 2 mps 767 mmHg 45%
    20:00 -8°C° 0 mm 2 mps 767 mmHg 46%
    21:00 -8°C° 0 mm 1 mps 766 mmHg 47%
    22:00 -8°C° 0 mm 1 mps 766 mmHg 47%
    23:00 -8°C° 0 mm 1 mps 766 mmHg 52%
    Show more